Location: Windsor
(43.2292°N, 89.3015°W)
Time: 23:38:30
(UTC+00:00)

DIWATA 2B (PO-101) - Pass Details

Date: 02 July 2022
Orbit: 583 x 599 km, 98.0° (Epoch: 18 August)

Event Time Altitude Azimuth Distance (km) Brightness Sun altitude
Exits shadow 08:13:23 35° 207° (SSW) 979 ? -17.1°
Maximum altitude 08:14:47 51° 260° (W) 762 ? -17.0°
Drops below altitude 10° 08:18:55 10° 337° (NNW) 1,949 ? -16.6°
Sets 08:21:09 0° 342° (NNW) 2,856 ? -16.4°
